IQ7ET-13 Weather Reports


Display with metric or nautical units.
time (UTC)temp
F
wind
direction
speed
MPH
gust
MPH
rain 1hr
in
rain 24hr
in
rain mn
in
humidity
%
barometer
mb
20260507001557 57 65 2.0 7.0 0.01 0.18 0.18 95 1017.9
20260507000030 57 191 1.0 7.0 0.04 0.18 0.18 95 1017.8
20260506234510 57 151 1.0 7.0 0.05 0.18 0.18 95 1017.4
20260506233050 57 150 0.0 8.0 0.07 0.17 0.17 95 1017.4
20260506231523 57 356 4.0 9.0 0.14 0.17 0.17 95 1016.9
20260506230010 57 26 3.0 5.0 0.13 0.14 0.14 95 1017.4
20260506224540 58 101 0.0 3.0 0.13 0.13 0.13 95 1018.1
20260506223017 58 148 0.0 1.0 0.09 0.09 0.10 95 1018.1
20260506221610 58 43 0.0 7.0 0.03 0.03 0.04 95 1017.9
20260506220037 57 131 3.0 7.0 0.01 0.01 0.01 95 1018.0
20260506214505 57 65 2.0 8.0 0.00 0.00 0.00 94 1017.9
20260506213048 57 119 4.0 10.0 0.00 0.00 0.00 94 1018.1
20260506211522 57 94 5.0 13.0 0.00 0.00 0.00 94 1017.9
20260506210105 57 94 5.0 12.0 0.00 0.00 0.00 94 1017.8
20260506204536 57 172 5.0 13.0 0.00 0.00 0.00 94 1017.7
20260506203014 57 128 3.0 11.0 0.00 0.00 0.00 94 1017.7
20260506201550 57 124 5.0 13.0 0.00 0.00 0.00 93 1017.6
20260506200026 57 176 4.0 10.0 0.00 0.00 0.00 93 1017.3
20260506194556 57 62 3.0 12.0 0.00 0.00 0.00 93 1017.3
20260506193034 57 89 5.0 12.0 0.00 0.00 0.00 93 1017.1
20260506191551 57 156 6.0 15.0 0.00 0.00 0.00 93 1017.2
20260506190029 57 101 5.0 11.0 0.00 0.00 0.00 92 1017.0
20260506184620 57 61 7.0 10.0 0.00 0.00 0.00 92 1017.0
20260506183018 0 0.0 0.0 0.00 0.00 0.00 1017.1
20260506181512 0 0.0 0.0 0.00 0.00 0.00 1017.0
20260506174539 0 0.0 0.0 0.00 0.00 0.00 1016.9
20260506173159 0 0.0 0.0 0.00 0.00 0.00 1016.9
20260506171518 0 0.0 0.0 0.00 0.00 0.00 1016.7
20260506170010 0 0.0 0.0 0.00 0.00 0.00 1016.8
20260506163036 0 0.0 0.0 0.00 0.00 0.00 1016.7
20260506160044 0 0.0 0.0 0.00 0.00 0.00 1016.8
20260506154545 0 0.0 0.0 0.00 0.00 0.00 1016.9
20260506151528 0 0.0 0.0 0.00 0.00 0.00 1017.0
20260506150110 0 0.0 0.0 0.00 0.00 0.00 1017.0
20260506144504 0 0.0 0.0 0.00 0.00 0.00 1017.1
20260506143051 0 0.0 0.0 0.00 0.00 0.00 1017.1
20260506140049 0 0.0 0.0 0.00 0.00 0.00 1017.1
20260506133035 0 0.0 0.0 0.00 0.00 0.00 1017.3
20260506131604 0 0.0 0.0 0.00 0.00 0.00 1017.3
20260506124528 0 0.0 0.0 0.00 0.00 0.00 1017.8
20260506121510 60 98 4.0 12.0 0.00 0.00 0.00 87 1017.7
20260506120050 61 205 1.0 14.0 0.00 0.00 0.00 87 1017.6
20260506114535 60 133 6.0 17.0 0.00 0.00 0.00 87 1017.6
20260506113006 61 116 6.0 18.0 0.00 0.00 0.00 86 1017.6
20260506111540 62 85 6.0 16.0 0.00 0.00 0.00 85 1017.5
20260506110022 62 131 7.0 17.0 0.00 0.00 0.00 85 1017.6
20260506104601 62 119 5.0 15.0 0.00 0.00 0.00 85 1018.1
20260506103034 61 111 4.0 11.0 0.00 0.00 0.00 86 1018.3
20260506101511 61 106 5.0 14.0 0.00 0.00 0.00 86 1018.3
20260506100104 61 81 6.0 14.0 0.00 0.00 0.00 86 1018.2
20260506094529 61 43 1.0 12.0 0.00 0.00 0.00 86 1018.2
20260506093005 61 88 4.0 15.0 0.00 0.00 0.00 86 1018.2
20260506091542 61 101 5.0 12.0 0.00 0.00 0.00 85 1018.3
20260506090018 61 74 6.0 14.0 0.00 0.00 0.00 86 1018.2
20260506084603 61 68 5.0 12.0 0.00 0.00 0.00 86 1018.1
20260506083033 60 75 5.0 11.0 0.00 0.00 0.00 88 1017.8
20260506081512 60 96 3.0 12.0 0.00 0.00 0.00 88 1017.9
20260506073009 58 139 6.0 12.0 0.00 0.00 0.00 93 1017.6
20260506071544 58 120 5.0 13.0 0.00 0.00 0.00 94 1017.5
20260506061502 0 0.0 0.0 0.00 0.00 0.00 1017.5
20260506044524 0 0.0 0.0 0.00 0.00 0.00 1017.1
20260506043004 0 0.0 0.0 0.00 0.00 0.00 1017.1
20260506040110 0 0.0 0.0 0.00 0.00 0.00 1016.8
20260506040002 0 0.0 0.0 0.00 0.00 0.00 1016.7
20260506033038 0 0.0 0.0 0.00 0.00 0.00 1016.8
20260506031533 0 0.0 0.0 0.00 0.00 0.00 1016.7
20260506024521 0 0.0 0.0 0.00 0.00 0.00 1016.9
20260506021540 0 0.0 0.0 0.00 0.00 0.00 1016.8
20260506020032 0 0.0 0.0 0.00 0.00 0.00 1016.9
20260506013006 0 0.0 0.0 0.00 0.00 0.00 1016.9
20260506011551 0 0.0 0.0 0.00 0.00 0.00 1016.8
20260506010006 0 0.0 0.0 0.00 0.00 0.00 1016.9
20260506004554 0 0.0 0.0 0.00 0.00 0.00 1017.0